{"data":{"norad_id":69548,"epoch":"2026-09-20T00:35:07.844640Z","epoch_age_seconds":62777,"freshness":"FRESH","line1":"1 69548U 26135C   26263.02439635  .00012113  00000+0  37673-3 0  9996","line2":"2 69548  97.2831 290.6621 0001404  97.6280 262.5123 15.33460491 14924","mean_motion":15.33460491,"eccentricity":0.0001404,"inclination_deg":97.2831,"raan_deg":290.6621,"arg_perigee_deg":97.628,"mean_anomaly_deg":262.5123,"bstar":0.00037673,"rev_number":1492,"period_min":93.90525601745,"perigee_km":464.53623832351,"apogee_km":466.45793077445,"semimajor_km":6843.634084549,"source":"CELESTRAK","updated_at":"2026-09-20T09:00:44.241981Z"}}